Powrót do katalogu

STARLINK-3956

AktywnyŁącznośćVLEO
NORAD 52560·PAYLOAD·🇺🇸 United States

Wystrzelony May 13, 2022 z Vandenberg Space Force Base

Loading…

Następne Przeloty (najbliższe 24 godziny)

TLE

ŚwieżeSource: CelesTrak SupGP

Epoka: Sep 14, 2026, 20:51 UTC

1 52560C 22051AD  26257.86923611 -.00031176  00000+0 -89203-3 0  2577
2 52560  53.1621 344.4059 0001596  48.6962 126.1337 15.35411711    16

Śledź STARLINK-3956 w czasie rzeczywistym z AllMySat

Download on the App Store